START_TIME,STEP,MOV.,AL01,t_acc.,AL02,t_acc.,E37,t_acc.,H21,t_acc.
1981-08-24 09:02:40.760 ,0,0,0.,24.0,0.,24.0,0.,24.0,0.,24.0
1981-08-24 09:02:59.370 ,1,1,0.,24.0,0.,24.0,0.,24.0,0.,24.0
1981-08-24 09:03:23.370 ,2,1,0.,24.0,0.,24.0,0.,24.0,0.,24.0
1981-08-24 09:03:47.370 ,3,1,0.,24.0,0.,24.0,0.,24.0,0.,24.0
1981-08-24 09:04:11.370 ,4,1,0.,24.0,0.,24.0,0.,24.0,0.,24.0
1981-08-24 09:04:35.370 ,5,1,0.,24.0,0.,24.0,0.,24.0,0.,24.0
1981-08-24 09:04:59.370 ,6,1,0.,24.0,0.,24.0,0.,24.0,0.,24.0
1981-08-24 09:05:23.370 ,7,1,7.,24.0,0.,24.0,0.,24.0,0.,24.0
1981-08-24 09:05:47.370 ,7,1,30.,24.0,0.,24.0,0.,24.0,0.,24.0
1981-08-24 09:06:11.370 ,7,0,19.,24.0,0.,24.0,0.,24.0,0.,24.0
1981-08-24 09:06:35.360 ,6,1,25.,24.0,0.,24.0,0.,24.0,0.,24.0
1981-08-24 09:06:59.360 ,6,0,0.,24.0,0.,24.0,0.,24.0,0.,24.0
1981-08-24 09:07:23.360 ,5,1,0.,24.0,0.,24.0,0.,24.0,0.,24.0
1981-08-24 09:07:47.360 ,5,0,0.,24.0,0.,24.0,0.,24.0,0.,24.0
1981-08-24 09:08:11.360 ,4,1,0.,24.0,0.,24.0,0.,24.0,0.,24.0
1981-08-24 09:08:35.360 ,4,0,0.,24.0,0.,24.0,0.,24.0,0.,24.0
1981-08-24 09:08:59.360 ,3,1,0.,24.0,0.,24.0,0.,24.0,0.,24.0
1981-08-24 09:09:23.360 ,3,0,0.,24.0,0.,24.0,0.,24.0,0.,24.0
1981-08-24 09:09:47.360 ,2,1,0.,24.0,0.,24.0,0.,24.0,0.,24.0
1981-08-24 09:10:11.360 ,2,0,0.,24.0,0.,24.0,0.,24.0,0.,24.0
1981-08-24 09:10:35.360 ,1,1,0.,24.0,0.,24.0,0.,24.0,0.,24.0
1981-08-24 09:10:59.360 ,1,0,0.,24.0,0.,24.0,0.,24.0,0.,24.0
1981-08-24 09:11:23.360 ,0,1,0.,24.0,0.,24.0,0.,24.0,0.,24.0
1981-08-24 09:11:47.360 ,0,0,0.,24.0,0.,24.0,0.,24.0,0.,24.0
1981-08-24 09:12:11.360 ,0,1,0.,24.0,0.,24.0,0.,24.0,0.,24.0
1981-08-24 09:12:35.360 ,0,0,0.,24.0,0.,24.0,0.,24.0,0.,24.0
1981-08-24 09:12:59.360 ,1,1,0.,24.0,1.,24.0,0.,24.0,0.,24.0
1981-08-24 09:13:23.360 ,1,0,0.,24.0,0.,24.0,0.,24.0,0.,24.0
1981-08-24 09:13:47.360 ,2,1,1.,24.0,0.,24.0,0.,24.0,0.,24.0
1981-08-24 09:14:11.360 ,2,0,1.,24.0,0.,24.0,0.,24.0,0.,24.0
1981-08-24 09:14:35.360 ,3,1,0.,24.0,0.,24.0,0.,24.0,0.,24.0
1981-08-24 09:14:59.360 ,3,0,0.,24.0,0.,24.0,0.,24.0,0.,24.0
1981-08-24 09:15:23.360 ,4,1,0.,24.0,0.,24.0,0.,24.0,0.,24.0
1981-08-24 09:15:47.360 ,4,0,0.,24.0,0.,24.0,0.,24.0,0.,24.0
1981-08-24 09:16:11.360 ,5,1,0.,24.0,0.,24.0,0.,24.0,0.,24.0
1981-08-24 09:16:35.360 ,5,0,0.,24.0,0.,24.0,0.,24.0,0.,24.0
1981-08-24 09:16:59.360 ,6,1,0.,24.0,0.,24.0,0.,24.0,0.,24.0
1981-08-24 09:17:23.360 ,6,0,0.,24.0,0.,24.0,0.,24.0,0.,24.0
1981-08-24 09:17:47.360 ,7,1,5.,24.0,0.,24.0,0.,24.0,0.,24.0
1981-08-24 09:18:11.360 ,7,0,21.,24.0,0.,24.0,0.,24.0,0.,24.0
1981-08-24 09:18:35.360 ,7,1,36.,24.0,0.,24.0,0.,24.0,0.,24.0
1981-08-24 09:18:59.360 ,6,1,21.,24.0,0.,24.0,0.,24.0,0.,24.0
1981-08-24 09:19:23.360 ,5,1,0.,24.0,0.,24.0,0.,24.0,0.,24.0
1981-08-24 09:19:47.360 ,4,1,0.,24.0,0.,24.0,0.,24.0,0.,24.0
1981-08-24 09:20:11.360 ,3,1,0.,24.0,0.,24.0,0.,24.0,0.,24.0
1981-08-24 09:20:35.360 ,2,1,0.,24.0,0.,24.0,0.,24.0,0.,24.0
1981-08-24 09:20:59.360 ,1,1,0.,24.0,0.,24.0,0.,24.0,0.,24.0
1981-08-24 09:21:23.360 ,0,1,0.,24.0,0.,24.0,0.,24.0,0.,24.0
1981-08-24 09:21:47.360 ,0,1,0.,24.0,0.,24.0,0.,24.0,0.,24.0
1981-08-24 09:22:11.360 ,1,1,0.,24.0,0.,24.0,0.,24.0,0.,24.0
1981-08-24 09:22:35.360 ,2,1,0.,24.0,1.,24.0,0.,24.0,0.,24.0
1981-08-24 09:22:59.360 ,3,1,0.,24.0,0.,24.0,0.,24.0,0.,24.0
1981-08-24 09:23:23.360 ,4,1,0.,24.0,0.,24.0,0.,24.0,0.,24.0
1981-08-24 09:23:47.360 ,5,1,0.,24.0,0.,24.0,0.,24.0,0.,24.0
1981-08-24 09:24:11.360 ,6,1,0.,24.0,0.,24.0,0.,24.0,0.,24.0
1981-08-24 09:24:35.360 ,7,1,5.,24.0,0.,24.0,0.,24.0,0.,24.0
1981-08-24 09:24:59.360 ,7,1,28.,24.0,0.,24.0,0.,24.0,0.,24.0
1981-08-24 09:25:23.360 ,7,0,31.,24.0,0.,24.0,0.,24.0,0.,24.0
1981-08-24 09:25:47.360 ,6,1,19.,24.0,0.,24.0,0.,24.0,0.,24.0
1981-08-24 09:26:11.360 ,6,0,0.,24.0,0.,24.0,0.,24.0,0.,24.0
1981-08-24 09:26:35.360 ,5,1,0.,24.0,0.,24.0,0.,24.0,0.,24.0
1981-08-24 09:26:59.360 ,5,0,0.,24.0,0.,24.0,0.,24.0,0.,24.0
1981-08-24 09:27:23.360 ,4,1,0.,24.0,0.,24.0,0.,24.0,0.,24.0
1981-08-24 09:27:47.360 ,4,0,0.,24.0,0.,24.0,0.,24.0,0.,24.0
1981-08-24 09:28:11.360 ,3,1,0.,24.0,1.,24.0,0.,24.0,0.,24.0
1981-08-24 09:28:35.360 ,3,0,0.,24.0,0.,24.0,0.,24.0,0.,24.0
1981-08-24 09:29:47.360 ,0,0,0.,24.0,0.,24.0,0.,24.0,0.,24.0
1981-08-24 09:30:11.360 ,0,0,0.,24.0,0.,24.0,0.,24.0,0.,24.0
1981-08-24 09:30:35.360 ,0,1,0.,24.0,0.,24.0,0.,24.0,0.,24.0
1981-08-24 09:30:59.360 ,0,0,0.,24.0,0.,24.0,0.,24.0,0.,24.0
1981-08-24 09:31:23.360 ,0,1,0.,24.0,0.,24.0,0.,24.0,0.,24.0
1981-08-24 09:31:47.360 ,0,0,0.,24.0,0.,24.0,0.,24.0,0.,24.0
1981-08-24 09:32:11.360 ,1,1,0.,24.0,0.,24.0,0.,24.0,0.,24.0
1981-08-24 09:32:35.360 ,1,0,0.,24.0,0.,24.0,0.,24.0,0.,24.0
1981-08-24 09:32:59.360 ,2,1,0.,24.0,0.,24.0,0.,24.0,0.,24.0
1981-08-24 09:33:23.360 ,2,0,0.,24.0,0.,24.0,0.,24.0,0.,24.0
1981-08-24 09:33:47.360 ,3,1,0.,24.0,0.,24.0,0.,24.0,0.,24.0
1981-08-24 09:34:11.360 ,3,0,0.,24.0,0.,24.0,0.,24.0,0.,24.0
1981-08-24 09:34:11.360 ,3,0,0.,24.0,0.,24.0,0.,24.0,0.,24.0
1981-08-24 09:34:35.360 ,4,1,0.,24.0,0.,24.0,0.,24.0,0.,24.0
1981-08-24 09:34:59.360 ,4,0,0.,24.0,0.,24.0,0.,24.0,0.,24.0
1981-08-24 09:35:23.360 ,5,1,0.,24.0,0.,24.0,0.,24.0,0.,24.0
1981-08-24 09:35:47.360 ,5,0,0.,24.0,0.,24.0,0.,24.0,0.,24.0
1981-08-24 09:36:11.360 ,6,1,0.,24.0,0.,24.0,0.,24.0,0.,24.0
1981-08-24 09:36:35.360 ,6,0,0.,24.0,0.,24.0,0.,24.0,0.,24.0
1981-08-24 09:36:59.360 ,7,1,10.,24.0,0.,24.0,0.,24.0,0.,24.0
1981-08-24 09:37:23.360 ,7,0,36.,24.0,0.,24.0,0.,24.0,0.,24.0
1981-08-24 09:37:47.360 ,7,1,32.,24.0,0.,24.0,0.,24.0,0.,24.0
1981-08-24 09:38:11.360 ,6,1,16.,24.0,0.,24.0,0.,24.0,0.,24.0
1981-08-24 09:38:35.360 ,0,0,0.,24.0,0.,24.0,0.,24.0,0.,24.0
1981-08-24 09:38:59.360 ,0,0,,0,,0,,0,,0
1981-08-24 09:38:59.360 ,4,1,0.,24.0,0.,24.0,0.,24.0,0.,24.0
1981-08-24 09:39:23.360 ,3,1,0.,24.0,0.,24.0,0.,24.0,0.,24.0
1981-08-24 09:39:47.360 ,2,1,1.,24.0,0.,24.0,0.,24.0,0.,24.0
1981-08-24 09:40:11.360 ,1,1,,0,,0,,0,,0
1981-08-24 09:40:35.360 ,0,1,0.,24.0,0.,24.0,0.,24.0,0.,24.0
1981-08-24 09:40:59.360 ,0,1,0.,24.0,0.,24.0,0.,24.0,0.,24.0
1981-08-24 09:41:23.360 ,1,0,,0,,0,,0,,0
1981-08-24 09:41:47.360 ,2,1,0.,24.0,0.,24.0,0.,24.0,0.,24.0
1981-08-24 09:42:11.360 ,3,1,0.,24.0,0.,24.0,0.,24.0,0.,24.0
1981-08-24 09:42:35.360 ,4,1,0.,24.0,0.,24.0,0.,24.0,0.,24.0
1981-08-24 09:42:59.360 ,5,1,0.,24.0,0.,24.0,0.,24.0,0.,24.0
1981-08-24 09:43:23.360 ,6,1,0.,24.0,0.,24.0,0.,24.0,0.,24.0
1981-08-24 09:43:47.360 ,7,1,12.,24.0,0.,24.0,0.,24.0,0.,24.0
1981-08-24 09:44:11.360 ,7,1,26.,24.0,0.,24.0,0.,24.0,0.,24.0
1981-08-24 09:44:35.360 ,7,0,29.,24.0,0.,24.0,0.,24.0,0.,24.0
1981-08-24 09:44:59.360 ,6,1,24.,24.0,0.,24.0,0.,24.0,0.,24.0
1981-08-24 09:45:23.360 ,6,0,0.,24.0,0.,24.0,0.,24.0,0.,24.0
1981-08-24 09:45:47.360 ,5,1,0.,24.0,0.,24.0,0.,24.0,0.,24.0
1981-08-24 09:46:11.360 ,5,0,0.,24.0,0.,24.0,0.,24.0,0.,24.0
1981-08-24 09:48:11.360 ,0,0,0.,24.0,0.,24.0,0.,24.0,0.,24.0
1981-08-24 09:48:35.360 ,0,0,0.,24.0,0.,24.0,0.,24.0,0.,24.0
1981-08-24 09:48:59.360 ,1,1,0.,24.0,0.,24.0,0.,24.0,0.,24.0
1981-08-24 09:49:23.360 ,1,0,0.,24.0,0.,24.0,0.,24.0,0.,24.0
1981-08-24 09:49:47.360 ,0,1,0.,24.0,0.,24.0,0.,24.0,0.,24.0
1981-08-24 09:50:11.360 ,0,0,0.,24.0,0.,24.0,0.,24.0,0.,24.0
1981-08-24 09:50:35.360 ,0,1,0.,24.0,0.,24.0,0.,24.0,0.,24.0
1981-08-24 09:50:59.360 ,0,0,0.,24.0,0.,24.0,0.,24.0,0.,24.0
1981-08-24 09:51:23.360 ,1,1,0.,24.0,0.,24.0,0.,24.0,0.,24.0
1981-08-24 09:51:47.360 ,1,0,0.,24.0,0.,24.0,0.,24.0,0.,24.0
1981-08-24 09:52:11.360 ,2,1,0.,24.0,0.,24.0,0.,24.0,0.,24.0
1981-08-24 09:52:35.360 ,2,0,0.,24.0,0.,24.0,0.,24.0,0.,24.0
1981-08-24 09:52:59.360 ,3,1,1.,24.0,1.,24.0,0.,24.0,0.,24.0
1981-08-24 09:53:23.360 ,3,0,0.,24.0,0.,24.0,0.,24.0,0.,24.0
1981-08-24 09:53:47.360 ,4,1,0.,24.0,0.,24.0,0.,24.0,0.,24.0
1981-08-24 09:54:11.360 ,4,0,0.,24.0,0.,24.0,0.,24.0,0.,24.0
1981-08-24 09:54:35.360 ,5,1,0.,24.0,0.,24.0,0.,24.0,0.,24.0
1981-08-24 09:54:59.360 ,5,0,0.,24.0,0.,24.0,0.,24.0,0.,24.0
1981-08-24 09:55:23.360 ,6,1,0.,24.0,0.,24.0,0.,24.0,0.,24.0
1981-08-24 09:55:47.360 ,6,0,0.,24.0,0.,24.0,0.,24.0,0.,24.0
1981-08-24 09:56:11.360 ,7,1,8.,24.0,0.,24.0,0.,24.0,0.,24.0
1981-08-24 09:56:35.360 ,7,0,32.,24.0,0.,24.0,0.,24.0,0.,24.0
1981-08-24 09:56:59.360 ,7,1,38.,24.0,0.,24.0,0.,24.0,0.,24.0
1981-08-24 09:57:23.360 ,6,1,28.,24.0,0.,24.0,0.,24.0,0.,24.0
1981-08-24 09:57:47.360 ,5,1,0.,24.0,0.,24.0,0.,24.0,0.,24.0
1981-08-24 09:58:11.360 ,4,1,0.,24.0,0.,24.0,0.,24.0,0.,24.0
1981-08-24 09:58:35.360 ,3,1,0.,24.0,0.,24.0,0.,24.0,0.,24.0
1981-08-24 09:58:59.360 ,2,1,0.,24.0,0.,24.0,0.,24.0,0.,24.0
1981-08-24 09:59:23.360 ,1,1,0.,24.0,0.,24.0,0.,24.0,0.,24.0
1981-08-24 09:59:47.360 ,0,1,0.,24.0,0.,24.0,0.,24.0,0.,24.0
1981-08-24 10:00:11.360 ,0,1,0.,24.0,0.,24.0,0.,24.0,0.,24.0
1981-08-24 10:00:59.360 ,2,1,0.,24.0,0.,24.0,0.,24.0,0.,24.0
1981-08-24 10:01:23.360 ,3,1,1.,24.0,0.,24.0,0.,24.0,0.,24.0
1981-08-24 10:01:47.360 ,4,1,0.,24.0,0.,24.0,0.,24.0,0.,24.0
1981-08-24 10:02:11.360 ,0,0,,0,,0,,0,,0
1981-08-24 10:02:35.360 ,0,0,0.,24.0,0.,24.0,0.,24.0,0.,24.0
1981-08-24 10:02:59.360 ,7,1,8.,24.0,0.,24.0,0.,24.0,0.,24.0
1981-08-24 10:03:23.360 ,7,1,33.,24.0,0.,24.0,0.,24.0,0.,24.0
1981-08-24 10:03:47.360 ,7,0,29.,24.0,0.,24.0,0.,24.0,0.,24.0
1981-08-24 10:04:11.360 ,6,1,21.,24.0,0.,24.0,0.,24.0,0.,24.0
1981-08-24 10:04:35.360 ,6,0,0.,24.0,0.,24.0,0.,24.0,0.,24.0
1981-08-24 10:04:59.360 ,5,1,0.,24.0,0.,24.0,0.,24.0,0.,24.0
1981-08-24 10:05:23.360 ,5,0,0.,24.0,0.,24.0,0.,24.0,0.,24.0
1981-08-24 10:05:47.360 ,4,1,0.,24.0,0.,24.0,0.,24.0,0.,24.0
1981-08-24 10:06:11.360 ,4,0,0.,24.0,0.,24.0,0.,24.0,0.,24.0
1981-08-24 10:06:35.360 ,3,1,0.,24.0,0.,24.0,0.,24.0,0.,24.0
1981-08-24 10:06:59.360 ,3,0,0.,24.0,0.,24.0,0.,24.0,0.,24.0
1981-08-24 10:07:23.360 ,2,1,0.,24.0,0.,24.0,0.,24.0,0.,24.0
1981-08-24 10:07:47.360 ,2,0,0.,24.0,0.,24.0,0.,24.0,0.,24.0
1981-08-24 10:08:11.360 ,1,1,0.,24.0,0.,24.0,0.,24.0,0.,24.0
1981-08-24 10:08:35.360 ,1,0,0.,24.0,0.,24.0,0.,24.0,0.,24.0
1981-08-24 10:08:59.360 ,0,1,0.,24.0,0.,24.0,0.,24.0,0.,24.0
1981-08-24 10:09:23.360 ,0,0,0.,24.0,0.,24.0,0.,24.0,0.,24.0
1981-08-24 10:09:47.360 ,0,1,1.,24.0,0.,24.0,0.,24.0,0.,24.0
1981-08-24 10:10:11.360 ,0,0,,0,,0,,0,,0
1981-08-24 10:10:35.360 ,1,1,0.,24.0,0.,24.0,0.,24.0,0.,24.0
1981-08-24 10:10:59.360 ,1,0,0.,24.0,0.,24.0,0.,24.0,0.,24.0
1981-08-24 10:11:23.360 ,2,1,0.,24.0,0.,24.0,0.,24.0,0.,24.0
1981-08-24 10:11:47.360 ,2,0,0.,24.0,0.,24.0,0.,24.0,0.,24.0
1981-08-24 10:12:11.360 ,3,1,0.,24.0,0.,24.0,0.,24.0,0.,24.0
1981-08-24 10:12:35.360 ,3,0,0.,24.0,0.,24.0,0.,24.0,0.,24.0
1981-08-24 10:12:59.360 ,4,1,0.,24.0,0.,24.0,0.,24.0,0.,24.0
1981-08-24 10:13:23.360 ,4,0,0.,24.0,0.,24.0,0.,24.0,0.,24.0
1981-08-24 10:13:47.360 ,5,1,0.,24.0,0.,24.0,0.,24.0,0.,24.0
1981-08-24 10:14:11.360 ,5,0,0.,24.0,0.,24.0,0.,24.0,0.,24.0
1981-08-24 10:14:35.360 ,6,1,0.,24.0,0.,24.0,0.,24.0,0.,24.0
1981-08-24 10:14:59.360 ,6,0,0.,24.0,0.,24.0,0.,24.0,0.,24.0
1981-08-24 10:15:23.360 ,7,1,3.,24.0,0.,24.0,0.,24.0,0.,24.0
1981-08-24 10:15:47.360 ,7,0,39.,24.0,0.,24.0,0.,24.0,0.,24.0
1981-08-24 10:16:11.360 ,7,1,24.,24.0,0.,24.0,0.,24.0,0.,24.0
1981-08-24 10:16:35.360 ,6,1,19.,24.0,0.,24.0,0.,24.0,0.,24.0
1981-08-24 10:16:59.360 ,5,1,0.,24.0,0.,24.0,0.,24.0,0.,24.0
1981-08-24 10:17:23.360 ,4,1,0.,24.0,0.,24.0,0.,24.0,0.,24.0
1981-08-24 10:17:47.360 ,3,1,0.,24.0,0.,24.0,0.,24.0,0.,24.0
1981-08-24 10:18:11.360 ,2,1,0.,24.0,0.,24.0,0.,24.0,0.,24.0
1981-08-24 10:18:35.360 ,1,1,1.,24.0,0.,24.0,0.,24.0,0.,24.0
1981-08-24 10:18:59.360 ,0,1,0.,24.0,0.,24.0,0.,24.0,0.,24.0
1981-08-24 10:19:23.360 ,0,1,0.,24.0,0.,24.0,0.,24.0,0.,24.0
1981-08-24 10:19:47.360 ,1,1,0.,24.0,0.,24.0,0.,24.0,0.,24.0
1981-08-24 10:20:11.360 ,2,1,0.,24.0,0.,24.0,0.,24.0,0.,24.0
1981-08-24 10:20:35.360 ,3,1,0.,24.0,0.,24.0,0.,24.0,0.,24.0
1981-08-24 10:20:59.360 ,4,1,0.,24.0,0.,24.0,0.,24.0,0.,24.0
1981-08-24 10:21:23.360 ,0,0,,0,,0,,0,,0
1981-08-24 10:21:23.360 ,5,1,0.,24.0,0.,24.0,0.,24.0,0.,24.0
1981-08-24 10:21:47.360 ,6,1,0.,24.0,0.,24.0,0.,24.0,0.,24.0
1981-08-24 10:22:11.360 ,7,1,5.,24.0,0.,24.0,0.,24.0,0.,24.0
1981-08-24 10:22:35.360 ,7,1,32.,24.0,0.,24.0,0.,24.0,0.,24.0
1981-08-24 10:22:59.360 ,7,0,40.,24.0,0.,24.0,0.,24.0,0.,24.0
1981-08-24 10:23:23.360 ,6,1,31.,24.0,0.,24.0,0.,24.0,0.,24.0
1981-08-24 10:23:47.360 ,6,0,0.,24.0,0.,24.0,0.,24.0,0.,24.0
1981-08-24 10:24:11.360 ,5,1,0.,24.0,0.,24.0,0.,24.0,0.,24.0
1981-08-24 10:24:35.360 ,5,0,0.,24.0,0.,24.0,0.,24.0,0.,24.0
1981-08-24 10:24:59.360 ,4,1,0.,24.0,0.,24.0,0.,24.0,0.,24.0
1981-08-24 10:25:23.360 ,4,0,0.,24.0,0.,24.0,0.,24.0,0.,24.0
1981-08-24 10:25:47.360 ,3,1,0.,24.0,0.,24.0,0.,24.0,0.,24.0
1981-08-24 10:26:11.360 ,3,0,0.,24.0,0.,24.0,0.,24.0,0.,24.0
1981-08-24 10:26:35.360 ,2,1,0.,24.0,0.,24.0,0.,24.0,0.,24.0
1981-08-24 10:26:59.360 ,2,0,0.,24.0,0.,24.0,0.,24.0,0.,24.0
1981-08-24 10:27:23.360 ,1,1,0.,24.0,0.,24.0,0.,24.0,0.,24.0
1981-08-24 10:27:47.360 ,0,0,0.,24.0,0.,24.0,0.,24.0,0.,24.0
1981-08-24 10:28:11.360 ,0,1,0.,24.0,0.,24.0,0.,24.0,0.,24.0
1981-08-24 10:28:35.360 ,0,0,0.,24.0,0.,24.0,0.,24.0,0.,24.0
1981-08-24 10:28:59.360 ,0,1,0.,24.0,0.,24.0,0.,24.0,0.,24.0
1981-08-24 10:29:23.360 ,0,0,0.,24.0,0.,24.0,0.,24.0,0.,24.0
1981-08-24 10:29:47.360 ,1,1,0.,24.0,0.,24.0,0.,24.0,0.,24.0
1981-08-24 10:30:11.360 ,1,0,0.,24.0,0.,24.0,0.,24.0,0.,24.0
1981-08-24 10:30:35.360 ,2,1,0.,24.0,0.,24.0,0.,24.0,0.,24.0
1981-08-24 10:30:59.360 ,2,0,0.,24.0,0.,24.0,0.,24.0,0.,24.0
1981-08-24 10:31:23.360 ,3,1,0.,24.0,0.,24.0,0.,24.0,0.,24.0
1981-08-24 10:31:47.360 ,3,0,0.,24.0,0.,24.0,0.,24.0,0.,24.0
1981-08-24 10:32:11.360 ,4,1,0.,24.0,0.,24.0,0.,24.0,0.,24.0
1981-08-24 10:32:35.360 ,4,0,0.,24.0,0.,24.0,0.,24.0,0.,24.0
1981-08-24 10:32:59.360 ,5,1,0.,24.0,0.,24.0,0.,24.0,0.,24.0
1981-08-24 10:33:23.360 ,5,0,0.,24.0,0.,24.0,0.,24.0,0.,24.0
1981-08-24 10:33:47.360 ,6,1,0.,24.0,0.,24.0,0.,24.0,0.,24.0
1981-08-24 10:34:11.360 ,6,0,0.,24.0,0.,24.0,0.,24.0,0.,24.0
1981-08-24 10:34:35.360 ,7,1,7.,24.0,0.,24.0,0.,24.0,0.,24.0
1981-08-24 10:34:59.360 ,7,0,32.,24.0,0.,24.0,0.,24.0,0.,24.0
1981-08-24 10:35:23.360 ,7,1,24.,24.0,0.,24.0,0.,24.0,0.,24.0
1981-08-24 10:35:47.360 ,6,1,29.,24.0,0.,24.0,0.,24.0,0.,24.0
1981-08-24 10:36:11.360 ,5,1,0.,24.0,0.,24.0,0.,24.0,0.,24.0
1981-08-24 10:36:35.360 ,4,1,1.,24.0,0.,24.0,0.,24.0,0.,24.0
1981-08-24 10:36:59.360 ,3,1,0.,24.0,0.,24.0,0.,24.0,0.,24.0
1981-08-24 10:37:23.360 ,2,1,0.,24.0,0.,24.0,0.,24.0,0.,24.0
1981-08-24 10:37:47.360 ,1,1,0.,24.0,0.,24.0,0.,24.0,0.,24.0
1981-08-24 10:38:11.360 ,0,1,0.,24.0,0.,24.0,0.,24.0,0.,24.0
1981-08-24 10:38:35.360 ,0,1,0.,24.0,0.,24.0,0.,24.0,0.,24.0
1981-08-24 10:38:59.360 ,1,1,0.,24.0,0.,24.0,0.,24.0,0.,24.0
1981-08-24 10:39:23.360 ,2,1,1.,24.0,0.,24.0,0.,24.0,0.,24.0
1981-08-24 10:39:47.360 ,3,1,0.,24.0,0.,24.0,0.,24.0,0.,24.0
1981-08-24 10:40:11.360 ,4,1,0.,24.0,0.,24.0,0.,24.0,0.,24.0
1981-08-24 10:40:35.360 ,5,1,0.,24.0,0.,24.0,0.,24.0,0.,24.0
1981-08-24 10:40:59.360 ,6,1,0.,24.0,0.,24.0,0.,24.0,0.,24.0
1981-08-24 10:41:23.360 ,7,1,11.,24.0,0.,24.0,0.,24.0,0.,24.0
1981-08-24 10:41:47.360 ,7,1,24.,24.0,0.,24.0,0.,24.0,0.,24.0
1981-08-24 10:42:11.360 ,7,0,31.,24.0,0.,24.0,0.,24.0,0.,24.0
1981-08-24 10:42:35.360 ,6,1,17.,24.0,0.,24.0,0.,24.0,0.,24.0
1981-08-24 10:42:59.360 ,6,0,0.,24.0,0.,24.0,0.,24.0,0.,24.0
1981-08-24 10:43:23.360 ,5,1,1.,24.0,0.,24.0,0.,24.0,0.,24.0
1981-08-24 10:43:47.360 ,5,0,0.,24.0,0.,24.0,0.,24.0,0.,24.0
1981-08-24 10:44:11.360 ,4,1,0.,24.0,0.,24.0,0.,24.0,0.,24.0
1981-08-24 10:44:35.360 ,4,0,0.,24.0,0.,24.0,0.,24.0,0.,24.0
1981-08-24 10:44:59.360 ,3,1,0.,24.0,0.,24.0,0.,24.0,0.,24.0
1981-08-24 10:45:23.360 ,3,0,0.,24.0,0.,24.0,0.,24.0,0.,24.0
1981-08-24 10:45:47.360 ,2,1,1.,24.0,0.,24.0,0.,24.0,0.,24.0
1981-08-24 10:46:11.360 ,2,0,0.,24.0,0.,24.0,0.,24.0,0.,24.0
1981-08-24 10:46:35.360 ,1,1,0.,24.0,0.,24.0,0.,24.0,0.,24.0
1981-08-24 10:46:59.360 ,1,0,0.,24.0,0.,24.0,0.,24.0,0.,24.0
1981-08-24 10:47:23.360 ,0,1,0.,24.0,0.,24.0,0.,24.0,0.,24.0
1981-08-24 10:47:47.360 ,0,0,0.,24.0,0.,24.0,0.,24.0,0.,24.0
1981-08-24 10:48:11.360 ,0,1,0.,24.0,0.,24.0,0.,24.0,0.,24.0
1981-08-24 10:48:35.360 ,0,0,0.,24.0,0.,24.0,0.,24.0,0.,24.0
1981-08-24 10:48:59.360 ,1,1,0.,24.0,0.,24.0,0.,24.0,0.,24.0
1981-08-24 10:49:23.360 ,1,0,0.,24.0,0.,24.0,0.,24.0,0.,24.0
1981-08-24 10:49:47.360 ,2,1,0.,24.0,0.,24.0,0.,24.0,0.,24.0
1981-08-24 10:50:11.360 ,2,0,0.,24.0,0.,24.0,0.,24.0,0.,24.0
1981-08-24 10:50:35.360 ,3,1,0.,24.0,0.,24.0,0.,24.0,0.,24.0
1981-08-24 10:50:59.360 ,3,0,0.,24.0,0.,24.0,0.,24.0,0.,24.0
1981-08-24 10:51:23.360 ,4,1,0.,24.0,0.,24.0,0.,24.0,0.,24.0
1981-08-24 10:51:47.360 ,4,0,0.,24.0,0.,24.0,0.,24.0,0.,24.0
1981-08-24 10:52:11.360 ,5,1,0.,24.0,0.,24.0,0.,24.0,0.,24.0
1981-08-24 10:52:35.360 ,5,0,0.,24.0,0.,24.0,0.,24.0,0.,24.0
1981-08-24 10:52:59.360 ,6,1,0.,24.0,0.,24.0,0.,24.0,0.,24.0
1981-08-24 10:53:23.360 ,6,0,0.,24.0,0.,24.0,0.,24.0,0.,24.0
1981-08-24 10:53:47.360 ,7,1,4.,24.0,0.,24.0,0.,24.0,0.,24.0
1981-08-24 10:54:11.360 ,7,0,40.,24.0,0.,24.0,0.,24.0,0.,24.0
1981-08-24 10:54:35.360 ,7,1,29.,24.0,0.,24.0,0.,24.0,0.,24.0
1981-08-24 10:54:59.360 ,6,1,16.,24.0,1.,24.0,0.,24.0,0.,24.0
1981-08-24 10:55:23.360 ,5,1,1.,24.0,0.,24.0,0.,24.0,0.,24.0
1981-08-24 10:55:47.360 ,4,1,0.,24.0,0.,24.0,0.,24.0,0.,24.0
1981-08-24 10:56:11.360 ,3,1,0.,24.0,1.,24.0,0.,24.0,0.,24.0
1981-08-24 10:56:35.360 ,2,1,0.,24.0,0.,24.0,0.,24.0,0.,24.0
1981-08-24 10:56:59.360 ,1,1,0.,24.0,1.,24.0,0.,24.0,0.,24.0
1981-08-24 10:57:23.360 ,0,1,0.,24.0,0.,24.0,0.,24.0,0.,24.0
1981-08-24 10:57:47.360 ,0,1,0.,24.0,0.,24.0,0.,24.0,0.,24.0
1981-08-24 10:58:11.360 ,1,1,0.,24.0,0.,24.0,0.,24.0,0.,24.0
1981-08-24 10:58:35.360 ,2,1,0.,24.0,0.,24.0,0.,24.0,0.,24.0
1981-08-24 10:58:59.360 ,3,1,0.,24.0,0.,24.0,0.,24.0,0.,24.0
1981-08-24 10:59:23.360 ,4,1,1.,24.0,0.,24.0,0.,24.0,0.,24.0
1981-08-24 10:59:47.360 ,5,1,0.,24.0,0.,24.0,0.,24.0,0.,24.0
1981-08-24 11:00:11.360 ,6,1,0.,24.0,0.,24.0,0.,24.0,0.,24.0
1981-08-24 11:00:35.360 ,7,1,9.,24.0,0.,24.0,0.,24.0,0.,24.0
1981-08-24 11:00:59.360 ,7,1,27.,24.0,0.,24.0,0.,24.0,0.,24.0
1981-08-24 11:01:23.360 ,7,0,25.,24.0,0.,24.0,0.,24.0,0.,24.0
1981-08-24 11:01:47.360 ,6,1,27.,24.0,0.,24.0,0.,24.0,0.,24.0
1981-08-24 11:02:11.360 ,6,0,0.,24.0,0.,24.0,0.,24.0,0.,24.0
1981-08-24 11:02:35.360 ,5,1,0.,24.0,0.,24.0,0.,24.0,0.,24.0
1981-08-24 11:02:59.360 ,5,0,0.,24.0,0.,24.0,0.,24.0,0.,24.0
1981-08-24 11:03:23.360 ,4,1,0.,24.0,0.,24.0,0.,24.0,0.,24.0
1981-08-24 11:03:47.360 ,4,0,0.,24.0,0.,24.0,0.,24.0,0.,24.0
1981-08-24 11:04:11.360 ,3,1,0.,24.0,0.,24.0,0.,24.0,0.,24.0
1981-08-24 11:04:35.360 ,3,0,0.,24.0,0.,24.0,0.,24.0,0.,24.0
1981-08-24 11:04:59.360 ,2,1,0.,24.0,0.,24.0,0.,24.0,0.,24.0
1981-08-24 11:05:23.360 ,2,0,0.,24.0,0.,24.0,0.,24.0,0.,24.0
1981-08-24 11:05:47.360 ,1,1,0.,24.0,0.,24.0,0.,24.0,0.,24.0
1981-08-24 11:06:11.360 ,1,0,0.,24.0,0.,24.0,0.,24.0,0.,24.0
1981-08-24 11:06:35.360 ,0,1,0.,24.0,0.,24.0,0.,24.0,0.,24.0
1981-08-24 11:06:59.360 ,0,0,0.,24.0,0.,24.0,0.,24.0,0.,24.0
1981-08-24 11:07:23.360 ,0,1,0.,24.0,0.,24.0,0.,24.0,0.,24.0
1981-08-24 11:07:47.360 ,0,0,0.,24.0,0.,24.0,0.,24.0,0.,24.0
1981-08-24 11:08:11.360 ,1,1,0.,24.0,0.,24.0,0.,24.0,0.,24.0
1981-08-24 11:08:35.360 ,1,0,1.,24.0,0.,24.0,0.,24.0,0.,24.0
1981-08-24 11:08:59.360 ,2,1,0.,24.0,0.,24.0,0.,24.0,0.,24.0
1981-08-24 11:09:23.360 ,2,0,0.,24.0,0.,24.0,0.,24.0,0.,24.0
1981-08-24 11:10:35.360 ,0,0,0.,24.0,0.,24.0,0.,24.0,0.,24.0
1981-08-24 11:10:59.360 ,0,0,0.,24.0,0.,24.0,0.,24.0,0.,24.0
1981-08-24 11:11:23.360 ,5,1,0.,24.0,0.,24.0,0.,24.0,0.,24.0
1981-08-24 11:11:47.360 ,5,0,0.,24.0,0.,24.0,0.,24.0,0.,24.0
1981-08-24 11:12:11.360 ,6,1,0.,24.0,0.,24.0,0.,24.0,0.,24.0
1981-08-24 11:12:35.360 ,6,0,0.,24.0,0.,24.0,0.,24.0,0.,24.0
1981-08-24 11:12:59.360 ,7,1,6.,24.0,0.,24.0,0.,24.0,0.,24.0
1981-08-24 11:13:23.360 ,7,0,30.,24.0,0.,24.0,0.,24.0,0.,24.0
1981-08-24 11:13:47.360 ,7,1,19.,24.0,0.,24.0,0.,24.0,0.,24.0
1981-08-24 11:14:11.360 ,6,1,32.,24.0,0.,24.0,0.,24.0,0.,24.0
1981-08-24 11:14:35.360 ,5,1,0.,24.0,0.,24.0,0.,24.0,0.,24.0
1981-08-24 11:14:59.360 ,4,1,0.,24.0,0.,24.0,0.,24.0,0.,24.0
1981-08-24 11:15:23.360 ,3,1,0.,24.0,0.,24.0,0.,24.0,0.,24.0
1981-08-24 11:15:47.360 ,2,1,0.,24.0,0.,24.0,0.,24.0,0.,24.0
1981-08-24 11:16:11.360 ,1,1,0.,24.0,0.,24.0,0.,24.0,0.,24.0
1981-08-24 11:16:35.360 ,0,1,0.,24.0,0.,24.0,0.,24.0,0.,24.0
1981-08-24 11:16:59.360 ,0,1,0.,24.0,0.,24.0,0.,24.0,0.,24.0
1981-08-24 11:17:23.360 ,1,1,0.,24.0,0.,24.0,0.,24.0,0.,24.0
1981-08-24 11:17:47.360 ,2,1,0.,24.0,0.,24.0,0.,24.0,0.,24.0
1981-08-24 11:18:11.360 ,3,1,0.,24.0,0.,24.0,0.,24.0,0.,24.0
1981-08-24 11:18:35.360 ,4,1,0.,24.0,0.,24.0,0.,24.0,0.,24.0
1981-08-24 11:18:59.360 ,5,1,0.,24.0,0.,24.0,0.,24.0,0.,24.0
1981-08-24 11:19:23.360 ,6,1,0.,24.0,0.,24.0,0.,24.0,0.,24.0
1981-08-24 11:19:47.360 ,7,1,9.,24.0,0.,24.0,0.,24.0,0.,24.0
1981-08-24 11:20:11.360 ,7,1,26.,24.0,0.,24.0,0.,24.0,0.,24.0
1981-08-24 11:20:35.360 ,7,0,29.,24.0,0.,24.0,0.,24.0,0.,24.0
1981-08-24 11:20:59.360 ,6,1,25.,24.0,0.,24.0,0.,24.0,0.,24.0
1981-08-24 11:21:23.360 ,6,0,0.,24.0,0.,24.0,0.,24.0,0.,24.0
1981-08-24 11:21:47.360 ,5,1,0.,24.0,0.,24.0,0.,24.0,0.,24.0
1981-08-24 11:22:11.360 ,5,0,0.,24.0,0.,24.0,0.,24.0,0.,24.0
1981-08-24 11:22:35.360 ,4,1,0.,24.0,1.,24.0,0.,24.0,0.,24.0
1981-08-24 11:22:59.360 ,4,0,0.,24.0,0.,24.0,0.,24.0,0.,24.0
1981-08-24 11:23:23.360 ,3,1,0.,24.0,0.,24.0,0.,24.0,0.,24.0
1981-08-24 11:23:47.360 ,3,0,0.,24.0,0.,24.0,0.,24.0,0.,24.0
1981-08-24 11:24:11.360 ,2,1,0.,24.0,0.,24.0,0.,24.0,0.,24.0
1981-08-24 11:24:35.360 ,2,0,0.,24.0,0.,24.0,0.,24.0,0.,24.0
1981-08-24 11:24:59.360 ,1,1,0.,24.0,0.,24.0,0.,24.0,0.,24.0
1981-08-24 11:25:23.360 ,1,0,0.,24.0,0.,24.0,0.,24.0,0.,24.0
1981-08-24 11:25:47.360 ,0,1,0.,24.0,0.,24.0,0.,24.0,0.,24.0
1981-08-24 11:26:11.360 ,0,0,0.,24.0,0.,24.0,0.,24.0,0.,24.0
1981-08-24 11:26:35.360 ,0,1,0.,24.0,0.,24.0,0.,24.0,0.,24.0
1981-08-24 11:26:59.360 ,0,0,0.,24.0,0.,24.0,0.,24.0,0.,24.0
1981-08-24 11:27:23.360 ,1,1,0.,24.0,0.,24.0,0.,24.0,0.,24.0
1981-08-24 11:27:47.360 ,1,0,0.,24.0,0.,24.0,0.,24.0,0.,24.0
1981-08-24 11:28:11.360 ,2,1,0.,24.0,0.,24.0,0.,24.0,0.,24.0
1981-08-24 11:28:35.360 ,2,0,0.,24.0,0.,24.0,0.,24.0,0.,24.0
1981-08-24 11:28:59.360 ,3,1,0.,24.0,0.,24.0,0.,24.0,0.,24.0
1981-08-24 11:29:23.360 ,3,0,0.,24.0,0.,24.0,0.,24.0,0.,24.0
1981-08-24 11:29:47.360 ,4,1,0.,24.0,0.,24.0,0.,24.0,0.,24.0
1981-08-24 11:30:11.360 ,4,0,0.,24.0,0.,24.0,0.,24.0,0.,24.0
1981-08-24 11:30:35.360 ,5,1,0.,24.0,0.,24.0,0.,24.0,0.,24.0
1981-08-24 11:30:59.360 ,5,0,0.,24.0,0.,24.0,0.,24.0,0.,24.0
1981-08-24 11:31:23.360 ,6,1,1.,24.0,0.,24.0,0.,24.0,0.,24.0
1981-08-24 11:31:47.360 ,6,0,0.,24.0,0.,24.0,0.,24.0,0.,24.0
1981-08-24 11:32:11.360 ,7,1,3.,24.0,0.,24.0,0.,24.0,0.,24.0
1981-08-24 11:32:35.360 ,7,0,29.,24.0,0.,24.0,0.,24.0,0.,24.0
1981-08-24 11:32:59.360 ,7,1,27.,24.0,0.,24.0,0.,24.0,0.,24.0
1981-08-24 11:33:23.360 ,6,1,28.,24.0,0.,24.0,0.,24.0,0.,24.0
1981-08-24 11:33:47.360 ,5,1,0.,24.0,0.,24.0,0.,24.0,0.,24.0
1981-08-24 11:34:11.360 ,4,1,0.,24.0,0.,24.0,0.,24.0,0.,24.0
1981-08-24 11:34:35.360 ,3,1,0.,24.0,0.,24.0,0.,24.0,0.,24.0
1981-08-24 11:34:59.360 ,2,1,0.,24.0,0.,24.0,0.,24.0,0.,24.0
1981-08-24 11:35:23.360 ,1,1,0.,24.0,0.,24.0,0.,24.0,0.,24.0
1981-08-24 11:35:47.360 ,0,1,0.,24.0,0.,24.0,0.,24.0,0.,24.0
1981-08-24 11:36:11.360 ,0,1,0.,24.0,0.,24.0,0.,24.0,0.,24.0
1981-08-24 11:36:35.360 ,1,1,0.,24.0,0.,24.0,0.,24.0,0.,24.0
1981-08-24 11:36:59.350 ,2,1,0.,24.0,0.,24.0,0.,24.0,0.,24.0
1981-08-24 11:37:23.350 ,3,1,0.,24.0,0.,24.0,0.,24.0,0.,24.0
1981-08-24 11:37:47.350 ,4,1,0.,24.0,0.,24.0,0.,24.0,0.,24.0
1981-08-24 11:38:11.350 ,5,1,0.,24.0,0.,24.0,0.,24.0,0.,24.0
1981-08-24 11:38:35.350 ,6,1,0.,24.0,1.,24.0,0.,24.0,0.,24.0
1981-08-24 11:38:59.350 ,7,1,6.,24.0,0.,24.0,0.,24.0,0.,24.0
1981-08-24 11:39:23.350 ,7,1,29.,24.0,0.,24.0,0.,24.0,0.,24.0